Volver al catálogo

DELTA 1 DEB

ActivoUNKNOWN
NORAD 14839·DEBRIS·🇺🇸 United States

Lanzado Jul 14, 1977 desde Cape Canaveral Space Force Station

Loading…

Próximos Pases (próximas 24 horas)

TLE

ActualizadoSource: Space-Track

Época: Sep 14, 2026, 14:12 UTC

1 14839U 77065FU  26257.59204487  .00001174  00000-0  38177-2 0  9992
2 14839  28.9899  35.2473 0977519 159.2574 298.2998 11.92976680170483

Sigue DELTA 1 DEB en tiempo real con AllMySat

Download on the App Store